sat.trackr.live / text

‹ back to catalog

STARLINK-35696

NORAD 66489 · 2025-263E

PAYLOAD ACTIVE UNKNOWN

§ Identity

Operator
Country
US
Launch date
2025-11-15
Launch site
AFETR
Launch vehicle
Mass (kg)
RCS (m²)

Purposes: comms

External: N2YO · Heavens-Above · Gunter

§ Orbital elements

Epoch: 2026-09-20T12:08:31.852608Z

Period
94.27 min
Inclination
42.9993°
Eccentricity
0.0002208
Mean motion
15.27585239 rev/d
Perigee alt
481.5 km
Apogee alt
484.5 km
Semi-major
6,861.2 km
B*
2.6990e-4
RAAN
330.4665°
Arg perigee
231.8829°
Mean anomaly
128.1824°
Rev number
4,869

§ Raw data

STARLINK-356961 66489U 25263E   26263.50592422  .00007173  00000+0  26990-3 0  99952 66489  42.9993 330.4665 0002208 231.8829 128.1824 15.27585239 48693

JSON: /api/v1/satellites/66489 · /tle

For live sub-satellite position, see the globe view (requires WebGL).

§ Visibility from observer

Set your observer location to see the next 7 days of passes ≥ 10°. The values pass through the URL so the page stays shareable.

No JS? Fill the form by hand. The geolocation button needs JavaScript.